Time,TemperatureF,DewpointF,PressureIn,WindDirection,WindDirectionDegrees,WindSpeedMPH,WindSpeedGustMPH,Humidity,HourlyPrecipIn,Conditions,Clouds,dailyrainin,SoftwareType,DateUTC
2013-07-14 00:01:00,80.1,74.1,30.17,SE,145,13.0,13.0,82,0.00,,---,0.00,VWS V14.01,2013-07-14 04:01:00,
2013-07-14 00:06:00,80.1,74.5,30.17,SSE,154,11.0,12.0,83,0.00,,---,0.00,VWS V14.01,2013-07-14 04:06:00,
2013-07-14 00:11:00,80.0,74.4,30.17,SSE,148,12.0,13.0,83,0.00,,---,0.00,VWS V14.01,2013-07-14 04:11:00,
2013-07-14 00:16:00,79.9,74.3,30.17,SE,145,12.0,12.0,83,0.00,,---,0.00,VWS V14.01,2013-07-14 04:16:00,
2013-07-14 00:21:00,80.0,74.4,30.17,SE,145,11.0,13.0,83,0.00,,---,0.00,VWS V14.01,2013-07-14 04:21:00,
2013-07-14 00:26:00,80.0,74.4,30.17,SE,146,11.0,13.0,83,0.00,,---,0.00,VWS V14.01,2013-07-14 04:26:00,
2013-07-14 00:31:00,80.0,74.4,30.17,SE,140,10.0,12.0,83,0.00,,---,0.00,VWS V14.01,2013-07-14 04:31:00,
2013-07-14 00:36:00,80.0,74.4,30.17,SE,138,10.0,11.0,83,0.00,,---,0.00,VWS V14.01,2013-07-14 04:36:00,
2013-07-14 00:41:00,79.9,74.6,30.18,SE,135,10.0,11.0,84,0.00,,---,0.00,VWS V14.01,2013-07-14 04:41:00,
2013-07-14 00:46:00,80.0,74.7,30.18,SE,135,9.0,10.0,84,0.00,,---,0.00,VWS V14.01,2013-07-14 04:46:00,
2013-07-14 00:51:00,79.9,74.6,30.18,SE,134,10.0,10.0,84,0.00,,---,0.00,VWS V14.01,2013-07-14 04:51:00,
2013-07-14 00:56:00,79.8,74.9,30.18,SE,131,8.0,10.0,85,0.00,,---,0.00,VWS V14.01,2013-07-14 04:56:00,
2013-07-14 01:01:00,80.0,75.4,30.18,SE,131,12.0,13.0,86,0.00,,---,0.00,VWS V14.01,2013-07-14 05:01:00,
2013-07-14 01:06:00,80.0,75.8,30.18,SE,136,14.0,15.0,87,0.00,,---,0.00,VWS V14.01,2013-07-14 05:06:00,
2013-07-14 01:11:00,79.9,75.7,30.18,SE,138,14.0,16.0,87,0.00,,---,0.00,VWS V14.01,2013-07-14 05:11:00,
2013-07-14 01:16:00,79.9,75.7,30.18,SE,138,12.0,16.0,87,0.00,,---,0.00,VWS V14.01,2013-07-14 05:16:00,
2013-07-14 01:21:00,79.9,75.7,30.18,SE,142,14.0,17.0,87,0.00,,---,0.00,VWS V14.01,2013-07-14 05:21:00,
2013-07-14 01:26:00,79.9,75.7,30.18,SE,138,13.0,13.0,87,0.00,,---,0.00,VWS V14.01,2013-07-14 05:26:00,
2013-07-14 01:31:00,79.8,75.6,30.18,SE,132,12.0,13.0,87,0.00,,---,0.00,VWS V14.01,2013-07-14 05:31:00,
2013-07-14 01:36:00,79.7,75.5,30.18,SE,136,13.0,15.0,87,0.00,,---,0.00,VWS V14.01,2013-07-14 05:36:00,
2013-07-14 01:41:00,79.7,75.8,30.18,SE,132,12.0,14.0,88,0.00,,---,0.00,VWS V14.01,2013-07-14 05:41:00,
2013-07-14 01:46:00,79.6,75.7,30.18,SE,130,13.0,14.0,88,0.00,,---,0.00,VWS V14.01,2013-07-14 05:46:00,
2013-07-14 01:51:00,79.6,75.7,30.18,SE,136,15.0,16.0,88,0.00,,---,0.00,VWS V14.01,2013-07-14 05:51:00,
2013-07-14 01:56:00,79.6,75.7,30.18,SE,138,14.0,15.0,88,0.00,,---,0.00,VWS V14.01,2013-07-14 05:56:00,
2013-07-14 02:01:00,79.5,76.0,30.18,SE,132,12.0,13.0,89,0.00,,---,0.00,VWS V14.01,2013-07-14 06:01:00,
2013-07-14 02:06:00,79.5,76.0,30.18,SE,128,12.0,13.0,89,0.00,,---,0.00,VWS V14.01,2013-07-14 06:06:00,
2013-07-14 02:11:00,79.4,75.9,30.18,SE,129,10.0,13.0,89,0.00,,---,0.00,VWS V14.01,2013-07-14 06:11:00,
2013-07-14 02:16:00,79.4,76.2,30.18,SE,129,9.0,11.0,90,0.00,,---,0.00,VWS V14.01,2013-07-14 06:16:00,
2013-07-14 02:21:00,79.4,76.2,30.18,SE,125,10.0,11.0,90,0.00,,---,0.00,VWS V14.01,2013-07-14 06:21:00,
2013-07-14 02:26:00,79.3,76.1,30.18,ESE,120,11.0,13.0,90,0.00,,---,0.00,VWS V14.01,2013-07-14 06:26:00,
2013-07-14 02:31:00,79.3,76.1,30.18,ESE,121,12.0,12.0,90,0.00,,---,0.00,VWS V14.01,2013-07-14 06:31:00,
2013-07-14 02:36:00,79.2,76.3,30.18,ESE,123,12.0,13.0,91,0.00,,---,0.00,VWS V14.01,2013-07-14 06:36:00,
2013-07-14 02:41:00,79.1,76.2,30.18,SE,124,12.0,13.0,91,0.00,,---,0.00,VWS V14.01,2013-07-14 06:41:00,
2013-07-14 02:46:00,79.1,76.2,30.18,ESE,123,13.0,13.0,91,0.00,,---,0.00,VWS V14.01,2013-07-14 06:46:00,
2013-07-14 02:51:00,79.1,76.2,30.18,ESE,121,12.0,12.0,91,0.00,,---,0.00,VWS V14.01,2013-07-14 06:51:00,
2013-07-14 02:56:00,79.1,76.2,30.18,SE,127,10.0,11.0,91,0.00,,---,0.00,VWS V14.01,2013-07-14 06:56:00,
2013-07-14 03:01:00,79.1,76.2,30.18,SE,128,11.0,11.0,91,0.00,,---,0.00,VWS V14.01,2013-07-14 07:01:00,
2013-07-14 03:06:00,79.1,76.2,30.18,ESE,121,10.0,11.0,91,0.00,,---,0.00,VWS V14.01,2013-07-14 07:06:00,
2013-07-14 03:11:00,79.1,76.2,30.18,ESE,122,10.0,10.0,91,0.00,,---,0.00,VWS V14.01,2013-07-14 07:11:00,
2013-07-14 03:16:00,79.1,76.2,30.18,ESE,121,11.0,12.0,91,0.00,,---,0.00,VWS V14.01,2013-07-14 07:16:00,
2013-07-14 03:21:00,79.1,76.2,30.18,ESE,119,10.0,11.0,91,0.00,,---,0.00,VWS V14.01,2013-07-14 07:21:00,
2013-07-14 03:26:00,79.1,76.6,30.18,SE,126,10.0,10.0,92,0.00,,---,0.00,VWS V14.01,2013-07-14 07:26:00,
2013-07-14 03:31:00,79.1,76.6,30.18,ESE,122,10.0,10.0,92,0.00,,---,0.00,VWS V14.01,2013-07-14 07:31:00,
2013-07-14 03:36:00,79.1,76.6,30.18,ESE,121,10.0,10.0,92,0.00,,---,0.00,VWS V14.01,2013-07-14 07:36:00,
2013-07-14 03:41:00,79.0,76.5,30.18,SE,130,10.0,11.0,92,0.00,,---,0.00,VWS V14.01,2013-07-14 07:41:00,
2013-07-14 03:46:00,79.0,76.2,30.18,SE,131,11.0,11.0,91,0.00,,---,0.00,VWS V14.01,2013-07-14 07:46:00,
2013-07-14 03:51:00,79.1,76.2,30.18,SE,124,11.0,12.0,91,0.00,,---,0.00,VWS V14.01,2013-07-14 07:51:00,
2013-07-14 03:56:00,79.2,76.3,30.18,SE,124,10.0,12.0,91,0.00,,---,0.00,VWS V14.01,2013-07-14 07:56:00,
2013-07-14 04:01:00,79.2,76.3,30.18,ESE,121,10.0,12.0,91,0.00,,---,0.00,VWS V14.01,2013-07-14 08:01:00,
2013-07-14 04:06:00,79.2,76.3,30.18,ESE,116,11.0,12.0,91,0.00,,---,0.00,VWS V14.01,2013-07-14 08:06:00,
2013-07-14 04:11:00,79.1,76.2,30.18,ESE,119,11.0,12.0,91,0.00,,---,0.00,VWS V14.01,2013-07-14 08:11:00,
2013-07-14 04:16:00,79.1,76.2,30.18,ESE,120,11.0,11.0,91,0.00,,---,0.00,VWS V14.01,2013-07-14 08:16:00,
2013-07-14 04:21:00,79.2,76.3,30.18,ESE,113,10.0,11.0,91,0.00,,---,0.00,VWS V14.01,2013-07-14 08:21:00,
2013-07-14 04:26:00,79.1,76.2,30.19,ESE,117,9.0,10.0,91,0.00,,---,0.00,VWS V14.01,2013-07-14 08:26:00,
2013-07-14 04:31:00,79.1,76.6,30.18,ESE,112,10.0,10.0,92,0.00,,---,0.00,VWS V14.01,2013-07-14 08:31:00,
2013-07-14 04:36:00,79.1,76.6,30.18,ESE,111,10.0,11.0,92,0.00,,---,0.00,VWS V14.01,2013-07-14 08:36:00,
2013-07-14 04:41:00,79.0,76.5,30.18,ESE,114,9.0,10.0,92,0.00,,---,0.00,VWS V14.01,2013-07-14 08:41:00,
2013-07-14 04:46:00,79.0,76.5,30.18,ESE,112,12.0,12.0,92,0.00,,---,0.00,VWS V14.01,2013-07-14 08:46:00,
2013-07-14 04:51:00,79.0,76.5,30.18,ESE,114,10.0,11.0,92,0.00,,---,0.00,VWS V14.01,2013-07-14 08:51:00,
2013-07-14 04:56:00,79.0,76.5,30.18,ESE,115,10.0,12.0,92,0.00,,---,0.00,VWS V14.01,2013-07-14 08:56:00,
2013-07-14 05:01:00,78.9,76.4,30.18,ESE,116,12.0,12.0,92,0.00,,---,0.00,VWS V14.01,2013-07-14 09:01:00,
2013-07-14 05:06:00,79.0,76.5,30.18,ESE,122,11.0,11.0,92,0.00,,---,0.00,VWS V14.01,2013-07-14 09:06:00,
2013-07-14 05:11:00,78.9,76.4,30.18,ESE,109,11.0,11.0,92,0.00,,---,0.00,VWS V14.01,2013-07-14 09:11:00,
2013-07-14 05:16:00,78.9,76.4,30.18,ESE,114,11.0,12.0,92,0.00,,---,0.00,VWS V14.01,2013-07-14 09:16:00,
2013-07-14 05:21:00,78.9,76.1,30.18,ESE,113,10.0,13.0,91,0.00,,---,0.00,VWS V14.01,2013-07-14 09:21:00,
2013-07-14 05:26:00,79.0,76.2,30.18,ESE,119,12.0,12.0,91,0.00,,---,0.00,VWS V14.01,2013-07-14 09:26:00,
2013-07-14 05:31:00,79.0,76.2,30.19,ESE,119,12.0,12.0,91,0.00,,---,0.00,VWS V14.01,2013-07-14 09:31:00,
2013-07-14 05:36:00,79.1,76.2,30.19,ESE,119,11.0,12.0,91,0.00,,---,0.00,VWS V14.01,2013-07-14 09:36:00,
2013-07-14 05:41:00,79.1,76.2,30.19,ESE,121,12.0,12.0,91,0.00,,---,0.00,VWS V14.01,2013-07-14 09:41:00,
2013-07-14 05:46:00,79.1,75.9,30.20,ESE,117,14.0,14.0,90,0.00,,---,0.00,VWS V14.01,2013-07-14 09:46:00,
2013-07-14 05:51:00,79.1,75.9,30.19,ESE,117,12.0,12.0,90,0.00,,---,0.00,VWS V14.01,2013-07-14 09:51:00,
2013-07-14 05:56:00,79.2,76.0,30.19,ESE,115,12.0,12.0,90,0.00,,---,0.00,VWS V14.01,2013-07-14 09:56:00,
2013-07-14 06:01:00,79.1,75.9,30.20,ESE,117,11.0,12.0,90,0.00,,---,0.00,VWS V14.01,2013-07-14 10:01:00,
2013-07-14 06:06:00,79.2,76.0,30.20,ESE,117,11.0,12.0,90,0.00,,---,0.00,VWS V14.01,2013-07-14 10:06:00,
2013-07-14 06:11:00,79.1,75.9,30.20,ESE,115,10.0,11.0,90,0.00,,---,0.00,VWS V14.01,2013-07-14 10:11:00,
2013-07-14 06:16:00,79.1,75.9,30.20,ESE,123,11.0,12.0,90,0.00,,---,0.00,VWS V14.01,2013-07-14 10:16:00,
2013-07-14 06:21:00,79.1,75.9,30.20,ESE,117,11.0,12.0,90,0.00,,---,0.00,VWS V14.01,2013-07-14 10:21:00,
2013-07-14 06:26:00,79.1,75.9,30.20,ESE,119,11.0,13.0,90,0.00,,---,0.00,VWS V14.01,2013-07-14 10:26:00,
2013-07-14 06:31:00,79.2,76.0,30.20,ESE,117,11.0,13.0,90,0.00,,---,0.00,VWS V14.01,2013-07-14 10:31:00,
2013-07-14 06:36:00,79.1,75.9,30.20,ESE,121,10.0,11.0,90,0.00,,---,0.00,VWS V14.01,2013-07-14 10:36:00,
2013-07-14 06:41:00,79.2,76.0,30.20,ESE,123,11.0,11.0,90,0.00,,---,0.00,VWS V14.01,2013-07-14 10:41:00,
2013-07-14 06:46:00,79.3,76.1,30.20,ESE,117,9.0,11.0,90,0.00,,---,0.00,VWS V14.01,2013-07-14 10:46:00,
2013-07-14 06:51:00,79.2,76.0,30.21,ESE,123,9.0,11.0,90,0.00,,---,0.00,VWS V14.01,2013-07-14 10:51:00,
2013-07-14 06:56:00,79.2,76.0,30.21,ESE,118,12.0,12.0,90,0.00,,---,0.00,VWS V14.01,2013-07-14 10:56:00,
2013-07-14 07:01:00,79.3,76.1,30.21,ESE,116,12.0,13.0,90,0.00,,---,0.00,VWS V14.01,2013-07-14 11:01:00,
2013-07-14 07:06:00,79.2,76.0,30.21,ESE,116,11.0,12.0,90,0.00,,---,0.00,VWS V14.01,2013-07-14 11:06:00,
2013-07-14 07:11:00,79.2,76.0,30.21,ESE,115,11.0,11.0,90,0.00,,---,0.00,VWS V14.01,2013-07-14 11:11:00,
2013-07-14 07:16:00,79.1,75.9,30.21,ESE,111,10.0,11.0,90,0.00,,---,0.00,VWS V14.01,2013-07-14 11:16:00,
2013-07-14 07:21:00,79.2,76.0,30.21,ESE,105,10.0,11.0,90,0.00,,---,0.00,VWS V14.01,2013-07-14 11:21:00,
2013-07-14 07:26:00,79.3,76.1,30.22,ESE,108,11.0,12.0,90,0.00,,---,0.00,VWS V14.01,2013-07-14 11:26:00,
2013-07-14 07:31:00,79.2,76.0,30.22,ESE,115,10.0,11.0,90,0.00,,---,0.00,VWS V14.01,2013-07-14 11:31:00,
2013-07-14 07:36:00,79.3,76.1,30.22,ESE,114,13.0,13.0,90,0.00,,---,0.00,VWS V14.01,2013-07-14 11:36:00,
2013-07-14 07:41:00,79.4,76.2,30.22,ESE,115,11.0,12.0,90,0.00,,---,0.00,VWS V14.01,2013-07-14 11:41:00,
2013-07-14 07:46:00,79.4,76.2,30.22,ESE,116,10.0,11.0,90,0.00,,---,0.00,VWS V14.01,2013-07-14 11:46:00,
2013-07-14 07:51:00,79.5,76.3,30.22,ESE,112,11.0,12.0,90,0.00,,---,0.00,VWS V14.01,2013-07-14 11:51:00,
2013-07-14 07:56:00,79.5,76.3,30.22,ESE,110,11.0,13.0,90,0.00,,---,0.00,VWS V14.01,2013-07-14 11:56:00,
2013-07-14 08:01:00,79.5,76.3,30.22,ESE,105,13.0,13.0,90,0.00,,---,0.00,VWS V14.01,2013-07-14 12:01:00,
2013-07-14 08:06:00,79.5,76.3,30.22,ESE,107,12.0,13.0,90,0.00,,---,0.00,VWS V14.01,2013-07-14 12:06:00,
2013-07-14 08:11:00,79.5,76.3,30.22,ESE,111,13.0,13.0,90,0.00,,---,0.00,VWS V14.01,2013-07-14 12:11:00,
2013-07-14 08:16:00,79.5,76.3,30.23,ESE,111,11.0,13.0,90,0.00,,---,0.00,VWS V14.01,2013-07-14 12:16:00,
2013-07-14 08:21:00,79.4,76.2,30.23,ESE,115,10.0,12.0,90,0.00,,---,0.00,VWS V14.01,2013-07-14 12:21:00,
2013-07-14 08:26:00,79.5,76.3,30.23,ESE,107,11.0,11.0,90,0.00,,---,0.00,VWS V14.01,2013-07-14 12:26:00,
2013-07-14 08:31:00,79.5,76.3,30.23,ESE,111,10.0,11.0,90,0.00,,---,0.00,VWS V14.01,2013-07-14 12:31:00,
2013-07-14 08:36:00,79.3,76.1,30.23,ESE,112,11.0,14.0,90,0.00,,---,0.00,VWS V14.01,2013-07-14 12:36:00,
2013-07-14 08:41:00,79.5,76.3,30.23,ESE,111,10.0,12.0,90,0.00,,---,0.00,VWS V14.01,2013-07-14 12:41:00,
2013-07-14 08:46:00,79.3,76.1,30.23,ESE,111,10.0,11.0,90,0.00,,---,0.00,VWS V14.01,2013-07-14 12:46:00,
2013-07-14 08:51:00,79.3,76.1,30.23,ESE,111,10.0,10.0,90,0.00,,---,0.00,VWS V14.01,2013-07-14 12:51:00,
2013-07-14 08:56:00,79.3,76.1,30.23,ESE,105,10.0,11.0,90,0.00,,---,0.00,VWS V14.01,2013-07-14 12:56:00,
2013-07-14 09:01:00,79.4,76.2,30.23,ESE,103,11.0,12.0,90,0.00,,---,0.00,VWS V14.01,2013-07-14 13:01:00,
2013-07-14 09:06:00,79.5,76.3,30.23,ESE,106,11.0,12.0,90,0.00,,---,0.00,VWS V14.01,2013-07-14 13:06:00,
2013-07-14 09:11:00,79.6,76.4,30.24,ESE,107,11.0,12.0,90,0.00,,---,0.00,VWS V14.01,2013-07-14 13:11:00,
2013-07-14 09:16:00,79.6,76.1,30.24,East,98,10.0,13.0,89,0.00,,---,0.00,VWS V14.01,2013-07-14 13:16:00,
2013-07-14 09:21:00,79.7,76.2,30.24,East,101,9.0,11.0,89,0.00,,---,0.00,VWS V14.01,2013-07-14 13:21:00,
2013-07-14 09:26:00,79.8,76.3,30.24,ESE,107,11.0,11.0,89,0.00,,---,0.00,VWS V14.01,2013-07-14 13:26:00,
2013-07-14 09:31:00,79.8,76.3,30.24,ESE,109,11.0,11.0,89,0.00,,---,0.00,VWS V14.01,2013-07-14 13:31:00,
2013-07-14 09:36:00,79.8,76.3,30.24,ESE,110,11.0,11.0,89,0.00,,---,0.00,VWS V14.01,2013-07-14 13:36:00,
2013-07-14 09:41:00,79.8,76.3,30.24,ESE,109,10.0,11.0,89,0.00,,---,0.00,VWS V14.01,2013-07-14 13:41:00,
2013-07-14 09:46:00,79.8,76.3,30.24,ESE,107,11.0,12.0,89,0.00,,---,0.00,VWS V14.01,2013-07-14 13:46:00,
2013-07-14 09:51:00,79.8,76.3,30.24,ESE,105,11.0,12.0,89,0.00,,---,0.00,VWS V14.01,2013-07-14 13:51:00,
2013-07-14 09:55:00,79.9,76.4,30.24,ESE,109,11.0,12.0,89,0.00,,---,0.00,VWS V14.01,2013-07-14 13:55:00,
2013-07-14 10:00:00,79.9,76.4,30.24,ESE,109,12.0,13.0,89,0.00,,---,0.00,VWS V14.01,2013-07-14 14:00:00,
2013-07-14 10:05:00,80.0,76.5,30.24,ESE,108,13.0,13.0,89,0.00,,---,0.00,VWS V14.01,2013-07-14 14:05:00,
2013-07-14 10:10:00,80.0,76.1,30.24,ESE,110,12.0,12.0,88,0.00,,---,0.00,VWS V14.01,2013-07-14 14:10:00,
2013-07-14 10:15:00,80.0,76.1,30.24,East,101,11.0,12.0,88,0.00,,---,0.00,VWS V14.01,2013-07-14 14:15:00,
2013-07-14 10:20:00,80.1,76.2,30.24,ESE,105,13.0,13.0,88,0.00,,---,0.00,VWS V14.01,2013-07-14 14:20:00,
2013-07-14 10:25:00,80.2,76.3,30.24,ESE,112,12.0,13.0,88,0.00,,---,0.00,VWS V14.01,2013-07-14 14:25:00,
2013-07-14 10:30:00,80.2,76.3,30.25,ESE,106,10.0,11.0,88,0.00,,---,0.00,VWS V14.01,2013-07-14 14:30:00,
2013-07-14 10:35:00,80.2,76.3,30.25,ESE,113,13.0,13.0,88,0.00,,---,0.00,VWS V14.01,2013-07-14 14:35:00,
2013-07-14 10:40:00,80.2,76.0,30.25,ESE,109,11.0,12.0,87,0.00,,---,0.00,VWS V14.01,2013-07-14 14:40:00,
2013-07-14 10:45:00,80.0,75.8,30.25,ESE,109,12.0,14.0,87,0.00,,---,0.00,VWS V14.01,2013-07-14 14:45:00,
2013-07-14 10:50:00,80.2,75.6,30.25,ESE,117,13.0,14.0,86,0.00,,---,0.00,VWS V14.01,2013-07-14 14:50:00,
2013-07-14 10:55:00,80.3,75.7,30.25,ESE,113,11.0,12.0,86,0.00,,---,0.00,VWS V14.01,2013-07-14 14:55:00,
2013-07-14 11:00:00,80.2,75.6,30.25,ESE,113,11.0,13.0,86,0.00,,---,0.00,VWS V14.01,2013-07-14 15:00:00,
2013-07-14 11:05:00,80.3,75.7,30.25,ESE,113,13.0,15.0,86,0.00,,---,0.00,VWS V14.01,2013-07-14 15:05:00,
2013-07-14 11:10:00,80.3,75.7,30.25,ESE,112,12.0,13.0,86,0.00,,---,0.00,VWS V14.01,2013-07-14 15:10:00,
2013-07-14 11:15:00,80.3,75.7,30.25,ESE,105,12.0,13.0,86,0.00,,---,0.00,VWS V14.01,2013-07-14 15:15:00,
2013-07-14 11:20:00,80.3,75.7,30.25,ESE,109,12.0,12.0,86,0.00,,---,0.00,VWS V14.01,2013-07-14 15:20:00,
2013-07-14 11:25:00,80.3,75.7,30.25,ESE,103,13.0,13.0,86,0.00,,---,0.00,VWS V14.01,2013-07-14 15:25:00,
2013-07-14 11:30:00,80.5,75.9,30.25,ESE,105,13.0,13.0,86,0.00,,---,0.00,VWS V14.01,2013-07-14 15:30:00,
2013-07-14 11:35:00,80.6,76.0,30.25,ESE,107,11.0,12.0,86,0.00,,---,0.00,VWS V14.01,2013-07-14 15:35:00,
2013-07-14 11:40:00,80.5,75.6,30.25,ESE,109,13.0,14.0,85,0.00,,---,0.00,VWS V14.01,2013-07-14 15:40:00,
2013-07-14 11:45:00,80.6,75.7,30.25,ESE,110,14.0,14.0,85,0.00,,---,0.00,VWS V14.01,2013-07-14 15:45:00,
2013-07-14 11:50:00,80.7,76.1,30.25,ESE,107,11.0,11.0,86,0.00,,---,0.00,VWS V14.01,2013-07-14 15:50:00,
2013-07-14 11:55:00,80.7,76.1,30.25,ESE,107,13.0,13.0,86,0.00,,---,0.00,VWS V14.01,2013-07-14 15:55:00,
2013-07-14 12:00:00,80.6,76.0,30.25,ESE,113,12.0,13.0,86,0.00,,---,0.00,VWS V14.01,2013-07-14 16:00:00,
2013-07-14 12:05:00,80.7,76.1,30.26,ESE,110,13.0,14.0,86,0.00,,---,0.00,VWS V14.01,2013-07-14 16:05:00,
2013-07-14 12:10:00,80.6,76.0,30.26,ESE,109,14.0,14.0,86,0.00,,---,0.00,VWS V14.01,2013-07-14 16:10:00,
2013-07-14 12:15:00,80.6,76.0,30.26,ESE,113,11.0,13.0,86,0.00,,---,0.00,VWS V14.01,2013-07-14 16:15:00,
2013-07-14 12:20:00,80.7,76.1,30.26,ESE,110,10.0,12.0,86,0.00,,---,0.00,VWS V14.01,2013-07-14 16:20:00,
2013-07-14 12:25:00,80.7,76.1,30.26,ESE,115,11.0,12.0,86,0.00,,---,0.00,VWS V14.01,2013-07-14 16:25:00,
2013-07-14 12:30:00,80.6,76.0,30.26,ESE,115,11.0,12.0,86,0.00,,---,0.00,VWS V14.01,2013-07-14 16:30:00,
2013-07-14 12:35:00,80.7,76.1,30.26,ESE,116,11.0,11.0,86,0.00,,---,0.00,VWS V14.01,2013-07-14 16:35:00,
2013-07-14 12:40:00,80.7,76.1,30.26,ESE,113,10.0,11.0,86,0.00,,---,0.00,VWS V14.01,2013-07-14 16:40:00,
2013-07-14 12:45:00,80.6,76.0,30.26,ESE,114,12.0,12.0,86,0.00,,---,0.00,VWS V14.01,2013-07-14 16:45:00,
2013-07-14 12:50:00,80.7,76.1,30.26,ESE,119,11.0,11.0,86,0.00,,---,0.00,VWS V14.01,2013-07-14 16:50:00,
2013-07-14 12:55:00,80.8,76.2,30.26,ESE,106,11.0,12.0,86,0.00,,---,0.00,VWS V14.01,2013-07-14 16:55:00,
2013-07-14 13:00:00,80.8,76.6,30.26,ESE,113,13.0,13.0,87,0.00,,---,0.00,VWS V14.01,2013-07-14 17:00:00,
2013-07-14 13:05:00,80.7,76.1,30.26,ESE,116,13.0,13.0,86,0.00,,---,0.00,VWS V14.01,2013-07-14 17:05:00,
2013-07-14 13:10:00,80.8,76.6,30.26,ESE,111,12.0,12.0,87,0.00,,---,0.00,VWS V14.01,2013-07-14 17:10:00,
2013-07-14 13:15:00,80.8,76.2,30.26,ESE,117,12.0,13.0,86,0.00,,---,0.00,VWS V14.01,2013-07-14 17:15:00,
2013-07-14 13:20:00,80.8,76.6,30.26,ESE,115,14.0,14.0,87,0.00,,---,0.00,VWS V14.01,2013-07-14 17:20:00,
2013-07-14 13:25:00,80.8,76.6,30.26,ESE,108,11.0,11.0,87,0.00,,---,0.00,VWS V14.01,2013-07-14 17:25:00,
2013-07-14 13:30:00,80.8,76.6,30.26,ESE,116,13.0,14.0,87,0.00,,---,0.00,VWS V14.01,2013-07-14 17:30:00,
2013-07-14 13:35:00,80.7,76.1,30.26,ESE,114,14.0,14.0,86,0.00,,---,0.00,VWS V14.01,2013-07-14 17:35:00,
2013-07-14 13:40:00,80.8,76.2,30.25,ESE,110,15.0,15.0,86,0.00,,---,0.00,VWS V14.01,2013-07-14 17:40:00,
2013-07-14 13:45:00,80.8,76.2,30.26,ESE,109,12.0,13.0,86,0.00,,---,0.00,VWS V14.01,2013-07-14 17:45:00,
2013-07-14 13:50:00,80.9,76.3,30.25,ESE,113,12.0,12.0,86,0.00,,---,0.00,VWS V14.01,2013-07-14 17:50:00,
2013-07-14 13:55:00,80.9,76.3,30.25,ESE,113,15.0,15.0,86,0.00,,---,0.00,VWS V14.01,2013-07-14 17:55:00,
2013-07-14 14:00:00,80.9,76.3,30.25,ESE,111,14.0,14.0,86,0.00,,---,0.00,VWS V14.01,2013-07-14 18:00:00,
2013-07-14 14:05:00,80.9,76.3,30.25,ESE,111,14.0,14.0,86,0.00,,---,0.00,VWS V14.01,2013-07-14 18:05:00,
2013-07-14 14:10:00,80.8,75.9,30.25,ESE,113,13.0,13.0,85,0.00,,---,0.00,VWS V14.01,2013-07-14 18:10:00,
2013-07-14 14:15:00,80.9,76.0,30.25,ESE,117,13.0,13.0,85,0.00,,---,0.00,VWS V14.01,2013-07-14 18:15:00,
2013-07-14 14:20:00,80.9,76.0,30.25,ESE,120,12.0,12.0,85,0.00,,---,0.00,VWS V14.01,2013-07-14 18:20:00,
2013-07-14 14:25:00,80.9,76.0,30.25,ESE,121,12.0,12.0,85,0.00,,---,0.00,VWS V14.01,2013-07-14 18:25:00,
2013-07-14 14:30:00,80.9,76.0,30.25,ESE,115,12.0,12.0,85,0.00,,---,0.00,VWS V14.01,2013-07-14 18:30:00,
2013-07-14 14:35:00,81.0,76.4,30.25,ESE,123,13.0,13.0,86,0.00,,---,0.00,VWS V14.01,2013-07-14 18:35:00,
2013-07-14 14:40:00,80.9,76.0,30.24,ESE,117,13.0,13.0,85,0.00,,---,0.00,VWS V14.01,2013-07-14 18:40:00,
2013-07-14 14:45:00,80.9,76.0,30.24,ESE,120,11.0,11.0,85,0.00,,---,0.00,VWS V14.01,2013-07-14 18:45:00,
2013-07-14 14:50:00,80.9,76.0,30.24,ESE,119,13.0,13.0,85,0.00,,---,0.00,VWS V14.01,2013-07-14 18:50:00,
2013-07-14 14:55:00,81.0,76.1,30.24,ESE,116,11.0,12.0,85,0.00,,---,0.00,VWS V14.01,2013-07-14 18:55:00,
2013-07-14 15:00:00,80.9,75.6,30.24,ESE,115,12.0,12.0,84,0.00,,---,0.00,VWS V14.01,2013-07-14 19:00:00,
2013-07-14 15:05:00,81.0,76.1,30.24,ESE,119,11.0,11.0,85,0.00,,---,0.00,VWS V14.01,2013-07-14 19:05:00,
2013-07-14 15:10:00,81.1,76.2,30.24,ESE,110,10.0,11.0,85,0.00,,---,0.00,VWS V14.01,2013-07-14 19:10:00,
2013-07-14 15:15:00,81.1,76.2,30.24,ESE,119,11.0,12.0,85,0.00,,---,0.00,VWS V14.01,2013-07-14 19:15:00,
2013-07-14 15:20:00,81.0,76.1,30.24,ESE,115,11.0,12.0,85,0.00,,---,0.00,VWS V14.01,2013-07-14 19:20:00,
2013-07-14 15:25:00,81.0,75.7,30.23,ESE,117,11.0,11.0,84,0.00,,---,0.00,VWS V14.01,2013-07-14 19:25:00,
2013-07-14 15:30:00,81.0,75.7,30.24,ESE,117,10.0,10.0,84,0.00,,---,0.00,VWS V14.01,2013-07-14 19:30:00,
2013-07-14 15:35:00,81.0,76.1,30.24,ESE,121,11.0,11.0,85,0.00,,---,0.00,VWS V14.01,2013-07-14 19:35:00,
2013-07-14 15:40:00,81.1,76.2,30.23,ESE,115,10.0,10.0,85,0.00,,---,0.00,VWS V14.01,2013-07-14 19:40:00,
2013-07-14 15:45:00,81.0,76.1,30.23,ESE,117,10.0,12.0,85,0.00,,---,0.00,VWS V14.01,2013-07-14 19:45:00,
2013-07-14 15:50:00,81.1,76.2,30.23,ESE,116,10.0,13.0,85,0.00,,---,0.00,VWS V14.01,2013-07-14 19:50:00,
2013-07-14 15:55:00,81.1,76.2,30.23,ESE,112,11.0,12.0,85,0.00,,---,0.00,VWS V14.01,2013-07-14 19:55:00,
2013-07-14 16:00:00,81.2,76.3,30.23,ESE,114,11.0,11.0,85,0.00,,---,0.00,VWS V14.01,2013-07-14 20:00:00,
2013-07-14 16:05:00,81.1,76.2,30.23,ESE,114,10.0,11.0,85,0.00,,---,0.00,VWS V14.01,2013-07-14 20:05:00,
2013-07-14 16:10:00,81.1,76.2,30.23,ESE,121,11.0,13.0,85,0.00,,---,0.00,VWS V14.01,2013-07-14 20:10:00,
2013-07-14 16:15:00,81.1,76.2,30.22,ESE,119,11.0,13.0,85,0.00,,---,0.00,VWS V14.01,2013-07-14 20:15:00,
2013-07-14 16:20:00,81.2,76.3,30.22,ESE,117,12.0,13.0,85,0.00,,---,0.00,VWS V14.01,2013-07-14 20:20:00,
2013-07-14 16:25:00,81.2,76.3,30.22,ESE,117,11.0,14.0,85,0.00,,---,0.00,VWS V14.01,2013-07-14 20:25:00,
2013-07-14 16:30:00,81.2,76.3,30.22,ESE,119,13.0,14.0,85,0.00,,---,0.00,VWS V14.01,2013-07-14 20:30:00,
2013-07-14 16:35:00,81.1,76.2,30.22,ESE,120,12.0,13.0,85,0.00,,---,0.00,VWS V14.01,2013-07-14 20:35:00,
2013-07-14 16:40:00,81.2,76.3,30.22,ESE,115,12.0,14.0,85,0.00,,---,0.00,VWS V14.01,2013-07-14 20:40:00,
2013-07-14 16:45:00,81.2,76.3,30.22,ESE,118,12.0,15.0,85,0.00,,---,0.00,VWS V14.01,2013-07-14 20:45:00,
2013-07-14 16:50:00,81.3,76.4,30.22,ESE,115,15.0,15.0,85,0.00,,---,0.00,VWS V14.01,2013-07-14 20:50:00,
2013-07-14 16:55:00,81.3,76.4,30.22,ESE,114,14.0,15.0,85,0.00,,---,0.00,VWS V14.01,2013-07-14 20:55:00,
2013-07-14 17:00:00,81.3,76.7,30.22,ESE,117,16.0,16.0,86,0.00,,---,0.00,VWS V14.01,2013-07-14 21:00:00,
2013-07-14 17:05:00,81.1,76.2,30.22,ESE,119,16.0,17.0,85,0.00,,---,0.00,VWS V14.01,2013-07-14 21:05:00,
2013-07-14 17:10:00,81.2,76.6,30.22,ESE,113,16.0,18.0,86,0.00,,---,0.00,VWS V14.01,2013-07-14 21:10:00,
2013-07-14 17:15:00,81.0,76.8,30.22,ESE,111,13.0,18.0,87,0.00,,---,0.00,VWS V14.01,2013-07-14 21:15:00,
2013-07-14 17:20:00,80.8,76.2,30.22,ESE,119,15.0,17.0,86,0.00,,---,0.00,VWS V14.01,2013-07-14 21:20:00,
2013-07-14 17:25:00,80.9,76.3,30.22,ESE,119,17.0,17.0,86,0.00,,---,0.00,VWS V14.01,2013-07-14 21:25:00,
2013-07-14 17:30:00,80.9,76.3,30.22,ESE,117,16.0,17.0,86,0.00,,---,0.00,VWS V14.01,2013-07-14 21:30:00,
2013-07-14 17:35:00,80.8,76.2,30.22,ESE,117,14.0,17.0,86,0.00,,---,0.00,VWS V14.01,2013-07-14 21:35:00,
2013-07-14 17:40:00,80.8,76.6,30.22,ESE,119,15.0,16.0,87,0.00,,---,0.00,VWS V14.01,2013-07-14 21:40:00,
2013-07-14 17:45:00,80.9,76.7,30.22,ESE,116,13.0,15.0,87,0.00,,---,0.00,VWS V14.01,2013-07-14 21:45:00,
2013-07-14 17:50:00,80.9,76.7,30.22,ESE,120,12.0,14.0,87,0.00,,---,0.00,VWS V14.01,2013-07-14 21:50:00,
2013-07-14 17:55:00,80.9,76.7,30.22,ESE,121,13.0,14.0,87,0.00,,---,0.00,VWS V14.01,2013-07-14 21:55:00,
2013-07-14 18:00:00,80.9,76.7,30.22,ESE,117,13.0,14.0,87,0.00,,---,0.00,VWS V14.01,2013-07-14 22:00:00,
2013-07-14 18:05:00,81.0,76.8,30.22,ESE,113,13.0,14.0,87,0.00,,---,0.00,VWS V14.01,2013-07-14 22:05:00,
2013-07-14 18:10:00,80.9,76.3,30.22,ESE,121,14.0,15.0,86,0.00,,---,0.00,VWS V14.01,2013-07-14 22:10:00,
2013-07-14 18:15:00,81.0,76.1,30.22,ESE,115,13.0,14.0,85,0.00,,---,0.00,VWS V14.01,2013-07-14 22:15:00,
2013-07-14 18:20:00,81.1,76.5,30.22,ESE,119,13.0,15.0,86,0.00,,---,0.00,VWS V14.01,2013-07-14 22:20:00,
2013-07-14 18:25:00,81.1,76.2,30.22,ESE,116,13.0,14.0,85,0.00,,---,0.00,VWS V14.01,2013-07-14 22:25:00,
2013-07-14 18:30:00,81.2,76.6,30.22,ESE,113,12.0,14.0,86,0.00,,---,0.00,VWS V14.01,2013-07-14 22:30:00,
2013-07-14 18:35:00,81.1,76.2,30.22,ESE,111,11.0,14.0,85,0.00,,---,0.00,VWS V14.01,2013-07-14 22:35:00,
2013-07-14 18:40:00,81.1,76.2,30.22,ESE,114,12.0,14.0,85,0.00,,---,0.00,VWS V14.01,2013-07-14 22:40:00,
2013-07-14 18:45:00,81.1,76.2,30.22,ESE,118,12.0,13.0,85,0.00,,---,0.00,VWS V14.01,2013-07-14 22:45:00,
2013-07-14 18:50:00,81.1,76.2,30.22,ESE,111,11.0,14.0,85,0.00,,---,0.00,VWS V14.01,2013-07-14 22:50:00,
2013-07-14 18:55:00,81.0,76.1,30.22,ESE,119,12.0,13.0,85,0.00,,---,0.00,VWS V14.01,2013-07-14 22:55:00,
2013-07-14 19:00:00,81.1,76.2,30.22,ESE,115,13.0,15.0,85,0.00,,---,0.00,VWS V14.01,2013-07-14 23:00:00,
2013-07-14 19:05:00,81.1,76.5,30.22,ESE,115,12.0,14.0,86,0.00,,---,0.00,VWS V14.01,2013-07-14 23:05:00,
2013-07-14 19:10:00,81.1,76.5,30.22,ESE,115,12.0,14.0,86,0.00,,---,0.00,VWS V14.01,2013-07-14 23:10:00,
2013-07-14 19:15:00,81.0,76.4,30.22,ESE,113,12.0,13.0,86,0.00,,---,0.00,VWS V14.01,2013-07-14 23:15:00,
2013-07-14 19:20:00,81.1,76.9,30.22,ESE,116,12.0,13.0,87,0.00,,---,0.00,VWS V14.01,2013-07-14 23:20:00,
2013-07-14 19:25:00,81.1,76.9,30.22,ESE,111,12.0,15.0,87,0.00,,---,0.00,VWS V14.01,2013-07-14 23:25:00,
2013-07-14 19:30:00,81.0,76.8,30.22,ESE,116,14.0,15.0,87,0.00,,---,0.00,VWS V14.01,2013-07-14 23:30:00,
2013-07-14 19:35:00,80.9,76.7,30.22,ESE,115,14.0,15.0,87,0.00,,---,0.00,VWS V14.01,2013-07-14 23:35:00,
2013-07-14 19:40:00,81.0,76.8,30.22,ESE,107,13.0,17.0,87,0.00,,---,0.00,VWS V14.01,2013-07-14 23:40:00,
2013-07-14 19:45:00,81.1,76.9,30.22,ESE,110,12.0,16.0,87,0.00,,---,0.00,VWS V14.01,2013-07-14 23:45:00,
2013-07-14 19:50:00,81.0,76.4,30.22,ESE,113,15.0,15.0,86,0.00,,---,0.00,VWS V14.01,2013-07-14 23:50:00,
2013-07-14 19:55:00,81.0,76.4,30.23,ESE,108,15.0,16.0,86,0.00,,---,0.00,VWS V14.01,2013-07-14 23:55:00,
2013-07-14 20:00:00,81.0,76.4,30.22,ESE,114,14.0,14.0,86,0.00,,---,0.00,VWS V14.01,2013-07-15 00:00:00,
2013-07-14 20:05:00,81.0,76.1,30.23,ESE,110,14.0,15.0,85,0.00,,---,0.00,VWS V14.01,2013-07-15 00:05:00,
2013-07-14 20:10:00,80.9,76.0,30.23,ESE,114,14.0,15.0,85,0.00,,---,0.00,VWS V14.01,2013-07-15 00:10:00,
2013-07-14 20:15:00,81.1,76.2,30.23,ESE,111,14.0,15.0,85,0.00,,---,0.00,VWS V14.01,2013-07-15 00:15:00,
2013-07-14 20:20:00,81.1,76.5,30.22,ESE,114,14.0,15.0,86,0.00,,---,0.00,VWS V14.01,2013-07-15 00:20:00,
2013-07-14 20:25:00,81.1,76.5,30.23,ESE,108,14.0,16.0,86,0.00,,---,0.00,VWS V14.01,2013-07-15 00:25:00,
2013-07-14 20:30:00,81.0,76.4,30.23,ESE,109,15.0,16.0,86,0.00,,---,0.00,VWS V14.01,2013-07-15 00:30:00,
2013-07-14 20:35:00,81.0,76.4,30.23,ESE,105,15.0,17.0,86,0.00,,---,0.00,VWS V14.01,2013-07-15 00:35:00,
2013-07-14 20:40:00,81.1,76.5,30.23,ESE,105,17.0,18.0,86,0.00,,---,0.00,VWS V14.01,2013-07-15 00:40:00,
2013-07-14 20:45:00,80.9,76.0,30.23,ESE,109,15.0,18.0,85,0.00,,---,0.00,VWS V14.01,2013-07-15 00:45:00,
2013-07-14 20:50:00,81.0,76.1,30.23,ESE,103,14.0,17.0,85,0.00,,---,0.00,VWS V14.01,2013-07-15 00:50:00,
2013-07-14 20:55:00,81.0,76.4,30.22,ESE,111,15.0,17.0,86,0.00,,---,0.00,VWS V14.01,2013-07-15 00:55:00,
2013-07-14 21:00:00,80.9,76.0,30.23,ESE,112,14.0,17.0,85,0.00,,---,0.00,VWS V14.01,2013-07-15 01:00:00,
2013-07-14 21:05:00,81.1,76.5,30.23,ESE,113,15.0,17.0,86,0.00,,---,0.00,VWS V14.01,2013-07-15 01:05:00,
2013-07-14 21:10:00,80.9,76.3,30.23,ESE,108,15.0,17.0,86,0.00,,---,0.00,VWS V14.01,2013-07-15 01:10:00,
2013-07-14 21:15:00,80.9,76.3,30.23,ESE,113,14.0,17.0,86,0.00,,---,0.00,VWS V14.01,2013-07-15 01:15:00,
2013-07-14 21:20:00,80.9,76.3,30.23,ESE,111,15.0,17.0,86,0.00,,---,0.00,VWS V14.01,2013-07-15 01:20:00,
2013-07-14 21:25:00,80.8,76.2,30.23,ESE,107,16.0,17.0,86,0.00,,---,0.00,VWS V14.01,2013-07-15 01:25:00,
2013-07-14 21:30:00,80.9,76.3,30.23,ESE,104,14.0,17.0,86,0.00,,---,0.00,VWS V14.01,2013-07-15 01:30:00,
2013-07-14 21:35:00,80.8,75.9,30.23,ESE,109,17.0,18.0,85,0.00,,---,0.00,VWS V14.01,2013-07-15 01:35:00,
2013-07-14 21:40:00,81.0,76.1,30.24,ESE,107,18.0,18.0,85,0.00,,---,0.00,VWS V14.01,2013-07-15 01:40:00,
2013-07-14 21:45:00,81.0,76.1,30.24,ESE,109,16.0,19.0,85,0.00,,---,0.00,VWS V14.01,2013-07-15 01:45:00,
2013-07-14 21:50:00,81.1,76.2,30.24,East,98,10.0,17.0,85,0.00,,---,0.00,VWS V14.01,2013-07-15 01:50:00,
2013-07-14 21:55:00,80.6,75.3,30.24,East,90,11.0,16.0,84,0.00,,---,0.00,VWS V14.01,2013-07-15 01:55:00,
2013-07-14 22:00:00,80.3,75.0,30.24,East,88,10.0,15.0,84,0.00,,---,0.00,VWS V14.01,2013-07-15 02:00:00,
2013-07-14 22:05:00,80.3,75.0,30.24,East,88,13.0,15.0,84,0.00,,---,0.00,VWS V14.01,2013-07-15 02:05:00,
2013-07-14 22:10:00,80.3,74.7,30.24,East,97,10.0,16.0,83,0.00,,---,0.00,VWS V14.01,2013-07-15 02:10:00,
2013-07-14 22:15:00,80.3,74.7,30.24,East,92,14.0,15.0,83,0.00,,---,0.00,VWS V14.01,2013-07-15 02:15:00,
2013-07-14 22:20:00,80.4,74.8,30.24,East,99,13.0,15.0,83,0.00,,---,0.00,VWS V14.01,2013-07-15 02:20:00,
2013-07-14 22:25:00,80.4,75.1,30.24,East,94,13.0,15.0,84,0.00,,---,0.00,VWS V14.01,2013-07-15 02:25:00,
2013-07-14 22:30:00,80.4,75.1,30.25,East,86,9.0,15.0,84,0.00,,---,0.00,VWS V14.01,2013-07-15 02:30:00,
2013-07-14 22:35:00,80.3,75.0,30.25,East,90,14.0,14.0,84,0.00,,---,0.00,VWS V14.01,2013-07-15 02:35:00,
2013-07-14 22:40:00,80.2,75.3,30.25,East,86,10.0,14.0,85,0.00,,---,0.00,VWS V14.01,2013-07-15 02:40:00,
2013-07-14 22:45:00,80.4,75.5,30.25,East,96,10.0,15.0,85,0.00,,---,0.00,VWS V14.01,2013-07-15 02:45:00,
2013-07-14 22:50:00,80.3,75.4,30.25,East,88,11.0,16.0,85,0.00,,---,0.00,VWS V14.01,2013-07-15 02:50:00,
2013-07-14 22:55:00,80.4,75.5,30.25,East,87,11.0,14.0,85,0.00,,---,0.00,VWS V14.01,2013-07-15 02:55:00,
2013-07-14 23:00:00,80.3,75.7,30.25,ENE,70,5.0,10.0,86,0.00,,---,0.00,VWS V14.01,2013-07-15 03:00:00,
2013-07-14 23:05:00,80.3,75.7,30.25,East,86,6.0,9.0,86,0.00,,---,0.00,VWS V14.01,2013-07-15 03:05:00,
2013-07-14 23:10:00,80.5,76.6,30.25,ESE,109,14.0,14.0,88,0.00,,---,0.00,VWS V14.01,2013-07-15 03:10:00,
2013-07-14 23:15:00,80.3,76.1,30.25,East,82,6.0,17.0,87,0.00,,---,0.00,VWS V14.01,2013-07-15 03:15:00,
2013-07-14 23:20:00,80.3,76.1,30.24,ESE,103,16.0,18.0,87,0.00,,---,0.00,VWS V14.01,2013-07-15 03:20:00,
2013-07-14 23:25:00,80.6,76.4,30.24,ESE,103,16.0,19.0,87,0.00,,---,0.00,VWS V14.01,2013-07-15 03:25:00,
2013-07-14 23:30:00,80.4,75.8,30.24,East,100,9.0,17.0,86,0.00,,---,0.00,VWS V14.01,2013-07-15 03:30:00,
2013-07-14 23:35:00,80.4,76.5,30.24,ESE,109,15.0,16.0,88,0.00,,---,0.00,VWS V14.01,2013-07-15 03:35:00,
2013-07-14 23:40:00,80.6,76.0,30.24,ESE,113,16.0,17.0,86,0.00,,---,0.00,VWS V14.01,2013-07-15 03:40:00,
2013-07-14 23:45:00,80.7,76.1,30.24,ESE,108,17.0,17.0,86,0.00,,---,0.00,VWS V14.01,2013-07-15 03:45:00,
2013-07-14 23:50:00,80.7,76.1,30.24,ESE,110,15.0,17.0,86,0.00,,---,0.00,VWS V14.01,2013-07-15 03:50:00,
2013-07-14 23:55:00,80.8,76.6,30.24,ESE,105,15.0,17.0,87,0.00,,---,0.00,VWS V14.01,2013-07-15 03:55:00,